This is the latest recevied weather packets stored in our database for station/object SQ9RHX-13. If no packets are shown the sender has not sent any weather packets the latest 10 day(s).
| Time | Temp. | Humidity | Pressure | Rain* | Wind** | Luminosity | Snow |
|---|---|---|---|---|---|---|---|
| 1777906205 | 28.33° C | 32% | 1015.1 hPa | 0 mm | - | 202 W/m² | - |
| 1777905902 | 27.22° C | 33% | 1015.1 hPa | 0 mm | - | 286 W/m² | - |
| 1777905604 | 27.22° C | 33% | 1015.2 hPa | 0 mm | - | 355 W/m² | - |
| 1777905304 | 27.22° C | 34% | 1015.2 hPa | 0 mm | - | 326 W/m² | - |
| 1777905003 | 27.78° C | 33% | 1015.4 hPa | 0 mm | - | 246 W/m² | - |
| 1777904703 | 26.67° C | 35% | 1015.5 hPa | 0 mm | - | 257 W/m² | - |
| 1777904402 | 26.67° C | 34% | 1015.5 hPa | 0 mm | - | 276 W/m² | - |
| 1777904103 | 27.22° C | 34% | 1015.5 hPa | 0 mm | - | 204 W/m² | - |
| 1777903802 | 27.78° C | 34% | 1015.4 hPa | 0 mm | - | 290 W/m² | - |
| 1777903504 | 27.78° C | 34% | 1015.5 hPa | 0 mm | - | 347 W/m² | - |
| 1777903204 | 27.22° C | 34% | 1015.3 hPa | 0 mm | - | 419 W/m² | - |
| 1777902903 | 27.22° C | 34% | 1015.4 hPa | 0 mm | - | 450 W/m² | - |
| 1777902602 | 26.67° C | 33% | 1015.5 hPa | 0 mm | - | 392 W/m² | - |
| 1777902303 | 26.67° C | 35% | 1015.5 hPa | 0 mm | - | 321 W/m² | - |
| 1777902004 | 27.78° C | 33% | 1015.5 hPa | 0 mm | - | 323 W/m² | - |
| 1777901703 | 27.78° C | 33% | 1015.5 hPa | 0 mm | - | 373 W/m² | - |
| 1777901405 | 27.78° C | 33% | 1015.6 hPa | 0 mm | - | 443 W/m² | - |
| 1777901104 | 27.22° C | 33% | 1015.6 hPa | 0 mm | - | 469 W/m² | - |
| 1777900803 | 27.22° C | 34% | 1015.8 hPa | 0 mm | - | 486 W/m² | - |
| 1777900504 | 26.67° C | 33% | 1015.7 hPa | 0 mm | - | 449 W/m² | - |
| 1777900202 | 26.67° C | 34% | 1015.8 hPa | 0 mm | - | 509 W/m² | - |
| 1777899903 | 26.67° C | 34% | 1015.7 hPa | 0 mm | - | 242 W/m² | - |
| 1777899604 | 27.22° C | 34% | 1015.8 hPa | 0 mm | - | 343 W/m² | - |
| 1777899304 | 27.22° C | 33% | 1015.6 hPa | 0 mm | - | 363 W/m² | - |
| 1777899006 | 27.78° C | 33% | 1016 hPa | 0 mm | - | 556 W/m² | - |
* Rain latest hour (hover to see other rain measurements)
** Current wind speed in m/s (hover to see current wind gust speed)